{"data":{"norad_id":62433,"epoch":"2026-09-21T21:33:23.634144Z","epoch_age_seconds":53850,"freshness":"FRESH","line1":"1 62433U 24251B   26264.89819021  .00013260  00000+0  40304-3 0  9995","line2":"2 62433  53.1585 142.8848 0001212  97.0251 263.0889 15.34389036 98007","mean_motion":15.34389036,"eccentricity":0.0001212,"inclination_deg":53.1585,"raan_deg":142.8848,"arg_perigee_deg":97.0251,"mean_anomaly_deg":263.0889,"bstar":0.00040304,"rev_number":9800,"period_min":93.848428671906,"perigee_km":461.90671393299,"apogee_km":463.56494150643,"semimajor_km":6840.8728277197,"source":"CELESTRAK","updated_at":"2026-09-22T09:00:49.579870Z"}}